This is the latest recevied weather packets stored in our database for station/object N0HOT. If no packets are shown the sender has not sent any weather packets the latest 10 day(s).
| Time | Temp. | Humidity | Pressure | Rain* | Wind** | Luminosity | Snow |
|---|---|---|---|---|---|---|---|
| 1777611683 | 2.22° C | 59% | 1018.5 hPa | 0 mm | - | 0 W/m² | - |
| 1777611380 | 2.78° C | 59% | 1018.5 hPa | 0 mm | - | 0 W/m² | - |
| 1777611078 | 2.78° C | 60% | 1018.5 hPa | 0 mm | - | 0 W/m² | - |
| 1777610778 | 2.78° C | 59% | 1018.5 hPa | 0 mm | - | 0 W/m² | - |
| 1777610478 | 2.78° C | 59% | 1018.5 hPa | 0 mm | - | 0 W/m² | - |
| 1777610173 | 2.78° C | 58% | 1018.5 hPa | 0 mm | - | 0 W/m² | - |
| 1777609870 | 3.33° C | 58% | 1018.1 hPa | 0 mm | - | 0 W/m² | - |
| 1777609567 | 3.33° C | 57% | 1018.5 hPa | 0 mm | - | 0 W/m² | - |
| 1777609264 | 3.33° C | 56% | 1018.5 hPa | 0 mm | - | 0 W/m² | - |
| 1777608962 | 3.33° C | 55% | 1018.5 hPa | 0 mm | - | 0 W/m² | - |
| 1777608658 | 3.89° C | 54% | 1017.8 hPa | 0 mm | - | 0 W/m² | - |
| 1777608355 | 3.89° C | 55% | 1018.1 hPa | 0 mm | - | 0 W/m² | - |
| 1777608053 | 3.89° C | 57% | 1018.1 hPa | 0 mm | - | 0 W/m² | - |
| 1777607748 | 4.44° C | 53% | 1018.1 hPa | 0 mm | - | 0 W/m² | - |
| 1777607445 | 4.44° C | 52% | 1018.1 hPa | 0 mm | - | 0 W/m² | - |
| 1777607142 | 4.44° C | 52% | 1017.8 hPa | 0 mm | - | 0 W/m² | - |
| 1777606838 | 5° C | 51% | 1018.1 hPa | 0 mm | - | 0 W/m² | - |
| 1777606533 | 5° C | 51% | 1018.1 hPa | 0 mm | - | 0 W/m² | - |
| 1777606228 | 5° C | 51% | 1017.8 hPa | 0 mm | - | 0 W/m² | - |
| 1777605925 | 5.56° C | 51% | 1017.8 hPa | 0 mm | - | 0 W/m² | - |
| 1777605620 | 5.56° C | 50% | 1017.8 hPa | 0 mm | - | 0 W/m² | - |
| 1777605319 | 5.56° C | 52% | 1017.8 hPa | 0 mm | - | 0 W/m² | - |
| 1777605016 | 6.11° C | 48% | 1017.8 hPa | 0 mm | - | 0 W/m² | - |
| 1777604712 | 6.11° C | 48% | 1017.3 hPa | 0 mm | - | 0 W/m² | - |
| 1777604409 | 6.11° C | 46% | 1017.8 hPa | 0 mm | - | 0 W/m² | - |
* Rain latest hour (hover to see other rain measurements)
** Current wind speed in m/s (hover to see current wind gust speed)